KC3HIX Weather Reports


Display with metric or nautical units.
time (UTC)temp
F
wind
direction
speed
MPH
gust
MPH
rain 1hr
in
rain 24hr
in
rain mn
in
humidity
%
barometer
mb
20260505225507 77 0 0.0 0.0 0.00 0.00 0.00 42 1006.5
20260505225007 77 0 0.0 0.0 0.00 0.00 0.00 40 1006.5
20260505224507 77 0 0.0 0.0 0.00 0.00 0.00 39 1006.5
20260505224007 77 0 0.0 0.0 0.00 0.00 0.00 39 1006.2
20260505223507 77 0 0.0 0.0 0.00 0.00 0.00 39 1006.2
20260505223007 77 0 0.0 0.0 0.00 0.00 0.00 39 1006.2
20260505222507 77 0 0.0 0.0 0.00 0.00 0.00 38 1006.2
20260505222007 77 0 0.0 0.0 0.00 0.00 0.00 39 1005.8
20260505221507 77 0 0.0 0.0 0.00 0.00 0.00 37 1006.2
20260505221007 77 0 0.0 0.0 0.00 0.00 0.00 36 1006.2
20260505220507 78 0 0.0 0.0 0.00 0.00 0.00 37 1006.2
20260505220007 78 0 0.0 0.0 0.00 0.00 0.00 37 1006.2
20260505215507 78 0 0.0 0.0 0.00 0.00 0.00 37 1006.2
20260505215028 78 0 0.0 0.0 0.00 0.00 0.00 35 1005.8
20260505214507 79 0 0.0 0.0 0.00 0.00 0.00 36 1006.2
20260505214028 79 0 0.0 0.0 0.00 0.00 0.00 36 1006.2
20260505213507 80 0 0.0 0.0 0.00 0.00 0.00 34 1005.8
20260505213007 80 0 0.0 0.0 0.00 0.00 0.00 34 1005.8
20260505212507 80 0 0.0 0.0 0.00 0.00 0.00 34 1005.5
20260505212007 80 0 0.0 0.0 0.00 0.00 0.00 34 1005.5
20260505211507 80 0 0.0 0.0 0.00 0.00 0.00 34 1005.8
20260505211007 80 0 0.0 0.0 0.00 0.00 0.00 33 1005.5
20260505210507 80 0 0.0 0.0 0.00 0.00 0.00 32 1005.5
20260505210007 81 0 0.0 0.0 0.00 0.00 0.00 33 1005.8
20260505205507 81 0 0.0 0.0 0.00 0.00 0.00 33 1005.8
20260505205007 81 0 0.0 0.0 0.00 0.00 0.00 34 1005.5
20260505204528 81 0 0.0 0.0 0.00 0.00 0.00 34 1005.8
20260505204028 81 0 0.0 0.0 0.00 0.00 0.00 34 1005.5
20260505203507 81 0 0.0 0.0 0.00 0.00 0.00 34 1005.5
20260505203007 81 0 0.0 0.0 0.00 0.00 0.00 35 1005.8
20260505202507 81 0 0.0 0.0 0.00 0.00 0.00 34 1005.8
20260505202007 82 0 0.0 0.0 0.00 0.00 0.00 34 1005.8
20260505201507 82 0 0.0 0.0 0.00 0.00 0.00 32 1005.8
20260505201007 82 0 0.0 0.0 0.00 0.00 0.00 34 1005.8
20260505200507 82 0 0.0 0.0 0.00 0.00 0.00 35 1005.8
20260505200007 82 0 0.0 0.0 0.00 0.00 0.00 34 1005.8
20260505195507 82 0 0.0 0.0 0.00 0.00 0.00 34 1005.8
20260505195028 83 0 0.0 0.0 0.00 0.00 0.00 33 1005.8
20260505194507 83 0 0.0 0.0 0.00 0.00 0.00 32 1006.2
20260505194028 84 0 0.0 0.0 0.00 0.00 0.00 34 1006.2
20260505193507 84 0 0.0 0.0 0.00 0.00 0.00 37 1006.2
20260505193007 84 0 0.0 0.0 0.00 0.00 0.00 36 1006.2
20260505192528 83 0 0.0 0.0 0.00 0.00 0.00 38 1006.2
20260505192006 83 0 0.0 0.0 0.00 0.00 0.00 36 1006.2
20260505191507 83 0 0.0 0.0 0.00 0.00 0.00 38 1006.2
20260505191006 83 0 0.0 0.0 0.00 0.00 0.00 36 1006.2
20260505190506 83 0 0.0 0.0 0.00 0.00 0.00 37 1006.2
20260505190027 83 0 0.0 0.0 0.00 0.00 0.00 38 1006.2
20260505185506 82 0 0.0 0.0 0.00 0.00 0.00 39 1006.2
20260505185027 82 0 0.0 0.0 0.00 0.00 0.00 37 1006.2
20260505184506 82 0 0.0 0.0 0.00 0.00 0.00 39 1006.5
20260505184006 82 0 0.0 0.0 0.00 0.00 0.00 39 1006.8
20260505183506 82 0 0.0 0.0 0.00 0.00 0.00 39 1006.5
20260505183006 82 0 0.0 0.0 0.00 0.00 0.00 40 1006.8
20260505182506 82 0 0.0 0.0 0.00 0.00 0.00 42 1006.8
20260505182027 82 0 0.0 0.0 0.00 0.00 0.00 44 1006.8
20260505181506 82 0 0.0 0.0 0.00 0.00 0.00 41 1007.2
20260505181006 82 0 0.0 0.0 0.00 0.00 0.00 40 1007.2
20260505180506 82 0 0.0 0.0 0.00 0.00 0.00 41 1007.2
20260505180006 82 0 0.0 0.0 0.00 0.00 0.00 43 1007.5
20260505175527 82 0 0.0 0.0 0.00 0.00 0.00 40 1007.2
20260505175006 82 0 0.0 0.0 0.00 0.00 0.00 40 1007.5
20260505174506 82 0 0.0 0.0 0.00 0.00 0.00 39 1007.5
20260505174027 82 0 0.0 0.0 0.00 0.00 0.00 41 1007.5
20260505173506 82 0 0.0 0.0 0.00 0.00 0.00 39 1007.5
20260505173006 82 0 0.0 0.0 0.00 0.00 0.00 41 1007.5
20260505172506 82 0 0.0 0.0 0.00 0.00 0.00 41 1007.5
20260505172006 81 0 0.0 0.0 0.00 0.00 0.00 39 1007.2
20260505171506 82 0 0.0 0.0 0.00 0.00 0.00 40 1007.5
20260505171006 82 0 0.0 0.0 0.00 0.00 0.00 41 1007.5
20260505170506 82 0 0.0 0.0 0.00 0.00 0.00 46 1007.5
20260505170006 82 0 0.0 0.0 0.00 0.00 0.00 45 1007.5
20260505165506 82 0 0.0 0.0 0.00 0.00 0.00 41 1007.5
20260505165027 83 0 0.0 0.0 0.00 0.00 0.00 41 1007.5
20260505164506 83 0 0.0 0.0 0.00 0.00 0.00 41 1007.9
20260505164006 83 0 0.0 0.0 0.00 0.00 0.00 40 1007.9
20260505163506 83 0 0.0 0.0 0.00 0.00 0.00 41 1008.2
20260505163007 82 0 0.0 0.0 0.00 0.00 0.00 43 1007.9
20260505162506 82 0 0.0 0.0 0.00 0.00 0.00 42 1008.2
20260505162006 82 0 0.0 0.0 0.00 0.00 0.00 41 1008.6
20260505161506 82 0 0.0 0.0 0.00 0.00 0.00 43 1008.6
20260505161006 82 0 0.0 0.0 0.00 0.00 0.00 43 1008.2
20260505160506 82 0 0.0 0.0 0.00 0.00 0.00 43 1008.6
20260505153006 78 0 0.0 0.0 0.00 0.00 0.00 45 1008.6
20260505152506 78 0 0.0 0.0 0.00 0.00 0.00 44 1008.9
20260505152006 78 0 0.0 0.0 0.00 0.00 0.00 48 1008.9
20260505151506 78 0 0.0 0.0 0.00 0.00 0.00 48 1008.9
20260505151027 78 0 0.0 0.0 0.00 0.00 0.00 46 1008.9
20260505150505 78 0 0.0 0.0 0.00 0.00 0.00 49 1008.9
20260505140505 80 0 0.0 0.0 0.00 0.00 0.00 46 1008.9
20260505125005 75 0 0.0 0.0 0.00 0.00 0.00 51 1009.6
20260505124526 75 0 0.0 0.0 0.00 0.00 0.00 50 1009.6
20260505124026 75 0 0.0 0.0 0.00 0.00 0.00 51 1009.6
20260505123505 74 0 0.0 0.0 0.00 0.00 0.00 50 1009.6
20260505123005 75 0 0.0 0.0 0.00 0.00 0.00 51 1009.6
20260505122505 73 0 0.0 0.0 0.00 0.00 0.00 54 1009.9
20260505122005 72 0 0.0 0.0 0.00 0.00 0.00 55 1009.9
20260505121505 70 0 0.0 0.0 0.00 0.00 0.00 59 1009.9
20260505121005 70 0 0.0 0.0 0.00 0.00 0.00 59 1009.9
20260505120505 69 0 0.0 0.0 0.00 0.00 0.00 60 1009.9
20260505120005 67 0 0.0 0.0 0.00 0.00 0.00 63 1009.3
20260505115505 66 0 0.0 0.0 0.00 0.00 0.00 64 1009.3
20260505115026 65 0 0.0 0.0 0.00 0.00 0.00 66 1009.3
20260505114505 64 0 0.0 0.0 0.00 0.00 0.00 67 1009.3
20260505114026 63 0 0.0 0.0 0.00 0.00 0.00 69 1009.6
20260505113505 62 0 0.0 0.0 0.00 0.00 0.00 71 1009.6
20260505113005 61 0 0.0 0.0 0.00 0.00 0.00 71 1009.6
20260505112505 61 0 0.0 0.0 0.00 0.00 0.00 72 1009.6
20260505112005 60 0 0.0 0.0 0.00 0.00 0.00 72 1009.6
20260505111505 60 0 0.0 0.0 0.00 0.00 0.00 73 1009.3
20260505111005 59 0 0.0 0.0 0.00 0.00 0.00 75 1008.9
20260505110505 59 0 0.0 0.0 0.00 0.00 0.00 76 1009.3
20260505102005 54 0 0.0 0.0 0.00 0.00 0.00 83 1008.9
20260505101505 53 0 0.0 0.0 0.00 0.00 0.00 84 1008.9
20260505101004 53 0 0.0 0.0 0.00 0.00 0.00 83 1008.9
20260505100504 53 0 0.0 0.0 0.00 0.00 0.00 83 1008.9
20260505100004 53 0 0.0 0.0 0.00 0.00 0.00 83 1008.6
20260505095526 53 0 0.0 0.0 0.00 0.00 0.00 84 1008.6
20260505095004 53 0 0.0 0.0 0.00 0.00 0.00 84 1008.6
20260505094504 53 0 0.0 0.0 0.00 0.00 0.00 83 1008.6
20260505094004 53 0 0.0 0.0 0.00 0.00 0.00 83 1008.2
20260505093504 53 0 0.0 0.0 0.00 0.00 0.00 83 1008.6
20260505093004 54 0 0.0 0.0 0.00 0.00 0.00 83 1008.2
20260505092504 54 0 0.0 0.0 0.00 0.00 0.00 82 1008.6
20260505092004 54 0 0.0 0.0 0.00 0.00 0.00 82 1008.6
20260505091504 54 0 0.0 0.0 0.00 0.00 0.00 82 1008.2
20260505091004 54 0 0.0 0.0 0.00 0.00 0.00 81 1008.2
20260505090525 55 0 0.0 0.0 0.00 0.00 0.00 81 1008.2
20260505090005 55 0 0.0 0.0 0.00 0.00 0.00 81 1008.2
20260505085504 55 0 0.0 0.0 0.00 0.00 0.00 80 1008.2
20260505085025 55 0 0.0 0.0 0.00 0.00 0.00 81 1008.2
20260505084504 55 0 0.0 0.0 0.00 0.00 0.00 80 1008.2
20260505084004 55 0 0.0 0.0 0.00 0.00 0.00 80 1008.2
20260505083504 56 0 0.0 0.0 0.00 0.00 0.00 78 1008.2
20260505083005 56 0 0.0 0.0 0.00 0.00 0.00 78 1008.2
20260505082504 56 0 0.0 0.0 0.00 0.00 0.00 77 1008.2
20260505082004 57 0 0.0 0.0 0.00 0.00 0.00 76 1008.2
20260505081504 57 0 0.0 0.0 0.00 0.00 0.00 75 1008.2
20260505081004 58 0 0.0 0.0 0.00 0.00 0.00 73 1008.2
20260505080504 58 0 0.0 0.0 0.00 0.00 0.00 72 1008.2
20260505080004 58 0 0.0 0.0 0.00 0.00 0.00 72 1008.2
20260505075504 58 0 0.0 0.0 0.00 0.00 0.00 71 1008.2
20260505075004 58 0 0.0 0.0 0.00 0.00 0.00 72 1007.9
20260505074504 58 0 0.0 0.0 0.00 0.00 0.00 72 1007.9
20260505074004 58 0 0.0 0.0 0.00 0.00 0.00 73 1008.2
20260505073525 58 0 0.0 0.0 0.00 0.00 0.00 73 1008.2
20260505073004 58 0 0.0 0.0 0.00 0.00 0.00 73 1007.9
20260505072504 57 0 0.0 0.0 0.00 0.00 0.00 74 1007.9
20260505072004 57 0 0.0 0.0 0.00 0.00 0.00 73 1007.9
20260505071504 57 0 0.0 0.0 0.00 0.00 0.00 73 1007.5
20260505071025 57 0 0.0 0.0 0.00 0.00 0.00 73 1008.2
20260505070525 57 0 0.0 0.0 0.00 0.00 0.00 75 1007.9
20260505070004 57 0 0.0 0.0 0.00 0.00 0.00 74 1007.9
20260505065504 57 0 0.0 0.0 0.00 0.00 0.00 74 1007.9
20260505065004 57 0 0.0 0.0 0.00 0.00 0.00 74 1007.9
20260505064525 57 0 0.0 0.0 0.00 0.00 0.00 71 1007.9
20260505064004 58 0 0.0 0.0 0.00 0.00 0.00 71 1007.9
20260505063504 58 0 0.0 0.0 0.00 0.00 0.00 72 1007.9
20260505063004 58 0 0.0 0.0 0.00 0.00 0.00 70 1008.2
20260505062504 58 0 0.0 0.0 0.00 0.00 0.00 69 1008.2
20260505062004 59 0 0.0 0.0 0.00 0.00 0.00 67 1008.2
20260505061504 59 0 0.0 0.0 0.00 0.00 0.00 69 1008.2
20260505061004 59 0 0.0 0.0 0.00 0.00 0.00 68 1008.2
20260505060504 60 0 0.0 0.0 0.00 0.00 0.00 67 1008.2
20260505060024 60 0 0.0 0.0 0.00 0.00 0.00 66 1008.2
20260505055504 60 0 0.0 0.0 0.00 0.00 0.00 64 1008.2
20260505055004 60 0 0.0 0.0 0.00 0.00 0.00 63 1008.2
20260505054524 61 0 0.0 0.0 0.00 0.00 0.00 62 1008.2
20260505054003 61 0 0.0 0.0 0.00 0.00 0.00 61 1008.2
20260505053504 61 0 0.0 0.0 0.00 0.00 0.00 60 1008.6
20260505053003 62 0 0.0 0.0 0.00 0.00 0.00 60 1008.6
20260505052504 62 0 0.0 0.0 0.00 0.00 0.00 58 1008.2
20260505052003 62 0 0.0 0.0 0.00 0.00 0.00 58 1008.6
20260505051504 62 0 0.0 0.0 0.00 0.00 0.00 57 1008.2
20260505051024 62 0 0.0 0.0 0.00 0.00 0.00 57 1008.6
20260505050503 62 0 0.0 0.0 0.00 0.00 0.00 57 1008.2
20260505041503 61 0 0.0 0.0 0.00 0.00 0.00 56 1007.9
20260505041003 61 0 0.0 0.0 0.00 0.00 0.00 56 1007.9
20260505040503 61 0 0.0 0.0 0.00 0.00 0.00 57 1008.2
20260505040004 61 0 0.0 0.0 0.00 0.00 0.00 56 1007.9
20260505035503 61 0 0.0 0.0 0.00 0.00 0.00 57 1007.9
20260505035003 61 0 0.0 0.0 0.00 0.00 0.00 57 1007.9
20260505034503 61 0 0.0 0.0 0.00 0.00 0.00 56 1007.5
20260505034003 61 0 0.0 0.0 0.00 0.00 0.00 58 1007.5
20260505033503 61 0 0.0 0.0 0.00 0.00 0.00 58 1007.5
20260505033003 61 0 0.0 0.0 0.00 0.00 0.00 57 1007.5
20260505032503 62 0 0.0 0.0 0.00 0.00 0.00 56 1007.9
20260505032024 62 0 0.0 0.0 0.00 0.00 0.00 56 1007.9
20260505031524 62 0 0.0 0.0 0.00 0.00 0.00 56 1007.9
20260505031003 62 0 0.0 0.0 0.00 0.00 0.00 55 1007.5
20260505030503 63 0 0.0 0.0 0.00 0.00 0.00 54 1007.5
20260505030024 63 0 0.0 0.0 0.00 0.00 0.00 53 1007.5
20260505025503 64 0 0.0 0.0 0.00 0.00 0.00 50 1007.5
20260505025003 64 0 0.0 0.0 0.00 0.00 0.00 50 1007.9
20260505024508 64 0 0.0 0.0 0.00 0.00 0.00 50 1007.5
20260505024008 64 0 0.0 0.0 0.00 0.00 0.00 50 1007.9
20260505023529 64 0 0.0 0.0 0.00 0.00 0.00 49 1007.9
20260505023029 64 0 0.0 0.0 0.00 0.00 0.00 50 1007.5
20260505022508 64 0 0.0 0.0 0.00 0.00 0.00 49 1007.9
20260505022029 64 0 0.0 0.0 0.00 0.00 0.00 49 1007.9
20260505021508 64 0 0.0 0.0 0.00 0.00 0.00 49 1007.9
20260505021008 64 0 0.0 0.0 0.00 0.00 0.00 49 1007.9
20260505020529 64 0 0.0 0.0 0.00 0.00 0.00 48 1007.9
20260505020029 65 0 0.0 0.0 0.00 0.00 0.00 49 1007.9
20260505015508 64 0 0.0 0.0 0.00 0.00 0.00 48 1007.9
20260505015008 65 0 0.0 0.0 0.00 0.00 0.00 48 1007.9
20260505014508 65 0 0.0 0.0 0.00 0.00 0.00 47 1007.9
20260505014008 66 0 0.0 0.0 0.00 0.00 0.00 47 1007.9
20260505013508 66 0 0.0 0.0 0.00 0.00 0.00 47 1007.9
20260505013008 66 0 0.0 0.0 0.00 0.00 0.00 47 1007.5
20260505012508 66 0 0.0 0.0 0.00 0.00 0.00 47 1007.9
20260505012008 66 0 0.0 0.0 0.00 0.00 0.00 47 1007.5
20260505011508 66 0 0.0 0.0 0.00 0.00 0.00 46 1007.9
20260505011029 66 0 0.0 0.0 0.00 0.00 0.00 46 1007.5
20260505010508 66 0 0.0 0.0 0.00 0.00 0.00 46 1007.5
20260505010029 67 0 0.0 0.0 0.00 0.00 0.00 46 1007.5
20260505005508 67 0 0.0 0.0 0.00 0.00 0.00 46 1007.2
20260505005029 67 0 0.0 0.0 0.00 0.00 0.00 47 1007.2
20260505004508 67 0 0.0 0.0 0.00 0.00 0.00 46 1007.2
20260505004008 67 0 0.0 0.0 0.00 0.00 0.00 47 1007.2
20260505003508 67 0 0.0 0.0 0.00 0.00 0.00 47 1007.2
20260505003008 68 0 0.0 0.0 0.00 0.00 0.00 46 1007.2
20260505002508 68 0 0.0 0.0 0.00 0.00 0.00 46 1007.2
20260505002008 68 0 0.0 0.0 0.00 0.00 0.00 45 1007.2
20260505001508 68 0 0.0 0.0 0.00 0.00 0.00 45 1007.2
20260505001008 68 0 0.0 0.0 0.00 0.00 0.00 46 1007.2
20260505000508 68 0 0.0 0.0 0.00 0.00 0.00 46 1007.2
20260505000008 68 0 0.0 0.0 0.00 0.00 0.00 44 1007.2
20260504235529 68 0 0.0 0.0 0.00 0.00 0.00 44 1007.2
20260504235008 69 0 0.0 0.0 0.00 0.00 0.00 44 1006.8
20260504234508 69 0 0.0 0.0 0.00 0.00 0.00 43 1006.8
20260504234008 69 0 0.0 0.0 0.00 0.00 0.00 43 1006.8
20260504233529 69 0 0.0 0.0 0.00 0.00 0.00 42 1006.8
20260504233029 70 0 0.0 0.0 0.00 0.00 0.00 43 1006.8
20260504232508 70 0 0.0 0.0 0.00 0.00 0.00 42 1006.8
20260504232029 70 0 0.0 0.0 0.00 0.00 0.00 41 1006.8
20260504231508 71 0 0.0 0.0 0.00 0.00 0.00 40 1006.8
20260504231029 71 0 0.0 0.0 0.00 0.00 0.00 41 1006.8
20260504230508 71 0 0.0 0.0 0.00 0.00 0.00 40 1006.8
20260504230008 71 0 0.0 0.0 0.00 0.00 0.00 40 1006.5